Location: Lane
(33.5226°N, 79.8788°W)
Time: 19:13:35
(UTC+00:00)

Explorer 11/Cluster Stage 4 - Pass Details

Date: 05 October 2022
Orbit: 466 x 1247 km, 28.8° (Epoch: 01 December)

Event Time Altitude Azimuth Distance (km) Brightness Sun altitude
Rises 18:40:05 0° 268° (W) 4,148 10.6 45.8°
Reaches altitude 10° 18:43:09 10° 265° (W) 3,133 10.2 45.4°
Maximum altitude 18:50:48 56° 189° (S) 1,268 9.3 44.5°
Drops below altitude 10° 18:57:15 10° 113° (ESE) 2,662 9.3 43.6°
Sets 18:59:42 0° 109° (ESE) 3,490 9.7 43.3°
